{"data":{"norad_id":59332,"intl_designator":"2024-057N","name":"STARLINK-31594","alt_names":[],"object_type":"PAYLOAD","status":"ACTIVE","operator":null,"country":"US","launch_date":"2024-03-25","launch_site_code":"AFETR","launch_vehicle":null,"mission":null,"orbit_class":"UNKNOWN","rcs_meters":null,"size_class":null,"mass_kg":null,"dimensions":null,"purposes":["comms"],"wikipedia_slug":null,"has_3d_model":false,"image_url":null,"decayed_at":null,"tle_current":{"epoch":"2026-09-21T02:21:20.078784Z","epoch_age_seconds":110602,"freshness":"FRESH","line1":"1 59332U 24057N   26264.09814906  .00000969  00000+0  44724-4 0  9995","line2":"2 59332  42.9998 174.8071 0000782 276.5201  83.5562 15.27566657139599","mean_motion":15.27566657,"eccentricity":7.82e-5,"inclination_deg":42.9998,"raan_deg":174.8071,"arg_perigee_deg":276.5201,"mean_anomaly_deg":83.5562,"bstar":4.4724e-5,"rev_number":13959,"period_min":94.267572115513,"perigee_km":482.55250219548,"apogee_km":483.62559794971,"semimajor_km":6861.2260500726,"source":"CELESTRAK","updated_at":"2026-09-22T09:00:48.900272Z"}}}